Forside
METAR-TAF:

METAR-TAF

Lufthavne :

Benton Harbor, Michigan, USA

Breddekreds: 42-07-43N, længdekreds: 086-25-42W, højde: 196 m

Aktuelle vejr

Denne rapport blev lavet for 22 minutter siden, kl. 23:53 UTC
Vind 15 kt fra vest med vindstød på up til 27 kt
Temperatur 2°C
Fugtighed 69%
Tryk 1006 hPa
Sigt: 16.1 km
skyfri

METAR: KBEH 212353Z AUTO 28015G27KT 10SM CLR 02/M03 A2971 RMK AO2 PK WND 27027/2346 SLP067 T00221033 10044 20022 53014

Tid: 19:15 (00:15 UTC)


TAF: fraværende

Vejrobservationer og prognoser fra mere end 4000 lufthavne (METAR og TAF).

De gule og røde prikker repræsenterer de meteorologiske stationer.

Flyt musen over at se navnet på stationen.

Så klik over at se vejr observationer og prognoser.

At skifte det kort: Klik på de grønne knapper med et sort kors for at zoome ind; på den grønne knap med en bindestreg for at zoome ud; eller på de grønne pile for tilstødende kort.


METAR-TAF: